EXPLORER 38 DEB, 28608

Orbit data source: Space-Track

EXPLORER 38 DEB, 28608 is space debris originally from a launch on Thu, 04 Jul 1968 UTC launched from the Air Force Western Test Range (AFWTR). Debris objects in space refer to the collection of defunct objects orbiting the Earth. Examples of debris include non-operational satellites, rocket bodies, and fragments generated from explosions, collisions, or faulty payload assembly.

Loading next visibility...
Identifier
28608, 1968-055M
Orbit
Active
Country
Flag of USUS
Related business
Manufacturer
Unknown
Mission
Spacecraft
Bus & Motor
Unknown
Mass
Unknown
Launch date (UTC)
1968-07-04 (58 years ago)
Launch vehicle
Unknown
Launch site
Air Force Western Test Range (AFWTR)
Object type
Payload
Rocket body
Debris
Shape & HBR
Unknown
Radar Cross Section
Medium (>0.1 m² and <1 m²)

Expand to show TLE details & history
Last TLE update: 1 week ago

TLE from 1 week ago
0 EXPLORER 38 DEB
1 28608U 68055M   26170.97533670 -.00000010  00000-0  00000-0 0  9996
2 28608 120.8133 162.7468 0024748 293.7474 269.7955  6.42258218296850
Epoch: 2026-06-19T23:24Z
TLE epoch observation values (Epoch: 2026-06-19T23:24:29.090Z)
Latitude
-19.93535°
Longitude
70.97738°
Altitude
5,853.083 km
Speed
5.709 km/s
True Right ascension
22h 01m 10s
True Declination
-19° 52' 16"
Sunlit
Object was in daylight at epoch
Visualization orbit readout
Latitude
Unknown
Longitude
Unknown
Altitude
Unknown
Speed
Unknown
Apparent Right ascension
Unknown
Apparent Declination
Unknown
Sunlit
N/A
Visualization observer readout
Local Sidereal Time
04:29:19
Azimuth
Unknown
Elevation
Unknown
Doppler factor
Unknown
Orbital elements
Apogee altitude
5,877.113 km
Perigee altitude
5,816.604 km
Semi-major axis
12,224.996 km
Eccentricity
0.00247
Inclination
120.8133°
RAAN
162.7468°
Arg. of periapsis
293.7474°
True anomaly
269.51191°
Mean anomaly
269.7955°
Eccentric anomaly
269.65371°
Mean motion
1.60572 °/min
Orbital period
224.2 mins
BSTAR
0
Loading maneuver chart data...
Computing Atmospheric mass density...
Loading historical data...
Loading historical data...
Loading historical data...
Loading historical data...
Loading historical data...
Loading historical data...
Loading historical data...

Documentation

Showing up to 5 results
|